Weather History for Telluride, CO

Change the Weather History Date:

Monday, January 27, 2014

  Actual Average Record
Temperature  
Mean Temperature 29 °F -  
Max Temperature 37 °F 32 °F 46 °F (2003)
Min Temperature 21 °F 13 °F -4 °F (2004)
Degree Days  
Heating Degree Days 36    
Moisture  
Dew Point 13 °F    
Average Humidity 52    
Maximum Humidity 68    
Minimum Humidity 35    
Precipitation  
Precipitation 0.00 in - - ()
Sea Level Pressure  
Sea Level Pressure 30.00 in    
Wind  
Wind Speed 7 mph (SW)    
Max Wind Speed 15 mph    
Max Gust Speed 30 mph    
Visibility 10 miles    
Events Snow    
Averages and records for this station are not official NWS values.
T = Trace of Precipitation, MM = Missing Value Source: NWS Daily Summary

Daily Weather History Graph

Daily Weather History Graph

Search for Another Location

Airport:

Trip Planner

Search our weather history database for the weather conditions in past years. The results will help you decide how hot, cold, wet, or windy it might be!

Date:

Astronomy

Jan. 27, 2014 Rise Set
Actual Time 7:19 AM MST 5:29 PM MST
Civil Twilight 6:51 AM MST 5:57 PM MST
Nautical Twilight 6:20 AM MST 6:29 PM MST
Astronomical Twilight 5:49 AM MST 7:00 PM MST
Moon 4:03 AM MST (1/27) 2:19 PM MST (1/27)
Length of Visible Light 11h 05m
Length of Day
10h 09m
Waning Crescent, 14% of the Moon is Illuminated
Jan 27
Waning Crescent
Jan 30
New
Feb 6
First Quarter
Feb 14
Full
Feb 22
Last Quarter

Hourly Weather History & Observations

Time (MST) Temp. Windchill Dew Point Humidity Pressure Visibility Wind Dir Wind Speed Gust Speed Precip Events Conditions
12:15 AM 24.8 °F - 12.2 °F 59% 30.04 in 10.0 mi Calm Calm - N/A   Clear
12:35 AM 26.6 °F 19.1 °F 14.0 °F 59% 30.04 in 10.0 mi SE 6.9 mph - N/A   Clear
12:55 AM 24.8 °F 15.3 °F 14.0 °F 64% 30.03 in 10.0 mi SE 9.2 mph - N/A   Clear
1:15 AM 23.0 °F 14.7 °F 14.0 °F 68% 30.03 in 10.0 mi ESE 6.9 mph - N/A   Clear
1:35 AM 23.0 °F 17.0 °F 14.0 °F 68% 30.03 in 10.0 mi East 4.6 mph - N/A   Clear
1:55 AM 23.0 °F 18.4 °F 14.0 °F 68% 30.02 in 10.0 mi ESE 3.5 mph - N/A   Clear
2:15 AM 24.8 °F 15.3 °F 14.0 °F 64% 30.02 in 10.0 mi SE 9.2 mph - N/A   Clear
2:35 AM 23.0 °F 14.7 °F 12.2 °F 63% 30.03 in 10.0 mi SE 6.9 mph - N/A   Clear
2:55 AM 23.0 °F 15.8 °F 12.2 °F 63% 30.03 in 10.0 mi ENE 5.8 mph - N/A   Clear
3:15 AM 23.0 °F 14.7 °F 12.2 °F 63% 30.03 in 10.0 mi SE 6.9 mph - N/A   Clear
3:35 AM 23.0 °F 13.1 °F 12.2 °F 63% 30.02 in 10.0 mi ESE 9.2 mph - N/A   Clear
3:55 AM 23.0 °F 13.9 °F 12.2 °F 63% 30.02 in 10.0 mi ESE 8.1 mph - N/A   Clear
4:15 AM 24.8 °F 17.9 °F 14.0 °F 64% 30.02 in 10.0 mi ESE 5.8 mph - N/A   Clear
4:35 AM 23.0 °F 15.8 °F 12.2 °F 63% 30.02 in 10.0 mi ESE 5.8 mph - N/A   Scattered Clouds
4:55 AM 23.0 °F 13.9 °F 12.2 °F 63% 30.02 in 10.0 mi SE 8.1 mph - N/A   Clear
5:15 AM 21.2 °F 11.7 °F 12.2 °F 68% 30.02 in 10.0 mi SE 8.1 mph - N/A   Clear
5:35 AM 23.0 °F 14.7 °F 12.2 °F 63% 30.02 in 10.0 mi ESE 6.9 mph - N/A   Clear
5:55 AM 23.0 °F 15.8 °F 12.2 °F 63% 30.02 in 10.0 mi ESE 5.8 mph - N/A   Clear
6:15 AM 23.0 °F 15.8 °F 12.2 °F 63% 30.02 in 10.0 mi ESE 5.8 mph - N/A   Clear
6:35 AM 23.0 °F 17.0 °F 10.4 °F 59% 30.02 in 10.0 mi SE 4.6 mph - N/A   Clear
6:55 AM 23.0 °F 14.7 °F 10.4 °F 59% 30.02 in 10.0 mi SE 6.9 mph - N/A   Clear
7:15 AM 23.0 °F 14.7 °F 10.4 °F 59% 30.02 in 10.0 mi ESE 6.9 mph - N/A   Clear
7:35 AM 23.0 °F 14.7 °F 10.4 °F 59% 30.02 in 10.0 mi SE 6.9 mph - N/A   Clear
7:55 AM 23.0 °F 17.0 °F 10.4 °F 59% 30.02 in 10.0 mi ESE 4.6 mph - N/A   Clear
8:15 AM 23.0 °F 13.9 °F 10.4 °F 59% 30.03 in 10.0 mi ESE 8.1 mph - N/A   Clear
8:35 AM 23.0 °F 15.8 °F 10.4 °F 59% 30.04 in 10.0 mi SE 5.8 mph - N/A   Clear
8:55 AM 26.6 °F - 10.4 °F 51% 30.04 in 10.0 mi Calm Calm - N/A   Clear
9:15 AM 28.4 °F - 10.4 °F 47% 30.04 in 10.0 mi Calm Calm - N/A   Clear
9:35 AM 28.4 °F - 10.4 °F 47% 30.04 in 10.0 mi Calm Calm - N/A   Clear
9:55 AM 30.2 °F - 10.4 °F 44% 30.03 in 10.0 mi Calm Calm - N/A   Clear
10:15 AM 32.0 °F - 10.4 °F 41% 30.04 in 10.0 mi Calm Calm - N/A   Clear
10:35 AM 32.0 °F 24.2 °F 10.4 °F 41% 30.03 in 10.0 mi WSW 9.2 mph - N/A   Clear
10:55 AM 33.8 °F 26.4 °F 8.6 °F 35% 30.03 in 10.0 mi WSW 9.2 mph - N/A   Clear
11:15 AM 33.8 °F 26.4 °F 10.4 °F 38% 30.02 in 10.0 mi WSW 9.2 mph - N/A   Clear
11:35 AM 33.8 °F 25.8 °F 10.4 °F 38% 30.01 in 10.0 mi WSW 10.4 mph - N/A   Mostly Cloudy
11:55 AM 33.8 °F 25.8 °F 10.4 °F 38% 30.01 in 10.0 mi West 10.4 mph - N/A   Overcast
12:15 PM 33.8 °F 25.3 °F 10.4 °F 38% 29.99 in 10.0 mi WSW 11.5 mph - N/A   Overcast
12:35 PM 35.6 °F 27.5 °F 12.2 °F 38% 29.99 in 10.0 mi WSW 11.5 mph - N/A   Mostly Cloudy
12:55 PM 35.6 °F 26.2 °F 12.2 °F 38% 29.98 in 10.0 mi West 15.0 mph - N/A   Scattered Clouds
1:15 PM 37.4 °F 29.8 °F 12.2 °F 36% 29.97 in 10.0 mi WSW 11.5 mph 20.7 mph N/A   Mostly Cloudy
1:35 PM 35.6 °F 27.1 °F 14.0 °F 41% 29.95 in 10.0 mi WSW 12.7 mph 19.6 mph N/A   Overcast
1:55 PM 35.6 °F 27.5 °F 14.0 °F 41% 29.95 in 10.0 mi WSW 11.5 mph 21.9 mph N/A   Scattered Clouds
2:15 PM 35.6 °F 26.2 °F 14.0 °F 41% 29.95 in 10.0 mi West 15.0 mph 18.4 mph N/A   Clear
2:35 PM 35.6 °F 26.2 °F 14.0 °F 41% 29.95 in 10.0 mi West 15.0 mph 18.4 mph N/A   Clear
2:55 PM 35.6 °F 28.0 °F 15.8 °F 44% 29.95 in 10.0 mi WSW 10.4 mph 17.3 mph N/A   Scattered Clouds
3:15 PM 35.6 °F 26.6 °F 17.6 °F 48% 29.96 in 10.0 mi WSW 13.8 mph 21.9 mph N/A   Scattered Clouds
3:35 PM 35.6 °F 27.1 °F 17.6 °F 48% 29.95 in 10.0 mi WSW 12.7 mph - N/A   Clear
3:55 PM 33.8 °F 25.3 °F 17.6 °F 52% 29.95 in 10.0 mi West 11.5 mph 17.3 mph N/A   Clear
4:15 PM 33.8 °F 25.8 °F 17.6 °F 52% 29.95 in 10.0 mi West 10.4 mph - N/A   Scattered Clouds
4:35 PM 33.8 °F 26.4 °F 17.6 °F 52% 29.95 in 10.0 mi West 9.2 mph - N/A   Mostly Cloudy
4:55 PM 33.8 °F 25.3 °F 17.6 °F 52% 29.94 in 10.0 mi West 11.5 mph - N/A   Overcast
5:15 PM 33.8 °F 24.3 °F 17.6 °F 52% 29.95 in 10.0 mi West 13.8 mph 18.4 mph N/A   Overcast
5:35 PM 32.0 °F 24.2 °F 15.8 °F 51% 29.95 in 10.0 mi West 9.2 mph 17.3 mph N/A   Mostly Cloudy
5:55 PM 32.0 °F 25.6 °F 17.6 °F 55% 29.95 in 10.0 mi West 6.9 mph 16.1 mph N/A   Overcast
6:15 PM 32.0 °F 24.8 °F 17.6 °F 55% 29.96 in 10.0 mi West 8.1 mph 16.1 mph N/A   Overcast
6:35 PM 32.0 °F 26.4 °F 15.8 °F 51% 29.96 in 10.0 mi West 5.8 mph - N/A   Overcast
6:55 PM 32.0 °F 28.7 °F 15.8 °F 51% 29.97 in 10.0 mi West 3.5 mph - N/A   Overcast
7:15 PM 32.0 °F - 14.0 °F 48% 29.97 in 10.0 mi Calm Calm - N/A   Overcast
7:35 PM 32.0 °F 26.4 °F 14.0 °F 48% 29.97 in 10.0 mi NW 5.8 mph - N/A   Overcast
7:55 PM 32.0 °F 25.6 °F 14.0 °F 48% 29.97 in 10.0 mi West 6.9 mph - N/A   Overcast
8:15 PM 30.2 °F 21.9 °F 14.0 °F 51% 29.97 in 10.0 mi West 9.2 mph 20.7 mph N/A   Overcast
8:35 PM 30.2 °F 20.8 °F 12.2 °F 47% 29.98 in 10.0 mi West 11.5 mph 18.4 mph N/A   Overcast
8:55 PM 30.2 °F 22.6 °F 12.2 °F 47% 29.98 in 10.0 mi West 8.1 mph - N/A   Overcast
9:15 PM 30.2 °F 21.9 °F 12.2 °F 47% 29.97 in 10.0 mi West 9.2 mph - N/A   Overcast
9:35 PM 30.2 °F 21.9 °F 12.2 °F 47% 29.98 in 10.0 mi West 9.2 mph 18.4 mph N/A   Overcast
9:55 PM 30.2 °F 21.3 °F 14.0 °F 51% 29.99 in 10.0 mi West 10.4 mph 17.3 mph N/A   Overcast
10:15 PM 30.2 °F 22.6 °F 14.0 °F 51% 29.99 in 10.0 mi West 8.1 mph - N/A   Overcast
10:35 PM 28.4 °F 19.7 °F 14.0 °F 55% 29.99 in 10.0 mi West 9.2 mph 16.1 mph N/A   Overcast
10:55 PM 28.4 °F 19.1 °F 14.0 °F 55% 30.00 in 10.0 mi WNW 10.4 mph 20.7 mph N/A Snow Light Snow
11:15 PM 28.4 °F 20.4 °F 14.0 °F 55% 30.00 in 10.0 mi WNW 8.1 mph 18.4 mph N/A   Overcast
11:35 PM 28.4 °F 19.7 °F 14.0 °F 55% 30.00 in 10.0 mi West 9.2 mph 25.3 mph N/A   Mostly Cloudy
11:55 PM 28.4 °F 22.2 °F 10.4 °F 47% 30.00 in 10.0 mi ESE 5.8 mph 29.9 mph N/A   Scattered Clouds